Year,Month,Day,Hour,Minute,Value (Times are PST for temperature in C)
2013,07,15,00,00,14.10
2013,07,15,00,01,14.10
2013,07,15,00,02,14.10
2013,07,15,00,03,14.10
2013,07,15,00,04,14.10
2013,07,15,00,05,14.10
2013,07,15,00,06,14.10
2013,07,15,00,07,14.00
2013,07,15,00,08,14.00
2013,07,15,00,09,14.00
2013,07,15,00,10,14.00
2013,07,15,00,11,14.00
2013,07,15,00,12,14.00
2013,07,15,00,13,14.00
2013,07,15,00,14,14.00
2013,07,15,00,15,14.00
2013,07,15,00,16,14.00
2013,07,15,00,17,14.00
2013,07,15,00,18,13.90
2013,07,15,00,19,13.90
2013,07,15,00,20,13.90
2013,07,15,00,21,13.90
2013,07,15,00,22,13.90
2013,07,15,00,23,13.90
2013,07,15,00,24,13.90
2013,07,15,00,25,13.90
2013,07,15,00,26,13.90
2013,07,15,00,27,13.90
2013,07,15,00,28,13.90
2013,07,15,00,29,13.80
2013,07,15,00,30,13.80
2013,07,15,00,31,13.80
2013,07,15,00,32,13.80
2013,07,15,00,33,13.80
2013,07,15,00,34,13.80
2013,07,15,00,35,13.70
2013,07,15,00,36,13.70
2013,07,15,00,37,13.70
2013,07,15,00,38,13.70
2013,07,15,00,39,13.70
2013,07,15,00,40,13.70
2013,07,15,00,41,13.70
2013,07,15,00,42,13.70
2013,07,15,00,43,13.70
2013,07,15,00,44,13.70
2013,07,15,00,45,13.70
2013,07,15,00,46,13.70
2013,07,15,00,47,13.70
2013,07,15,00,48,13.70
2013,07,15,00,49,13.70
2013,07,15,00,50,13.70
2013,07,15,00,51,13.70
2013,07,15,00,52,13.70
2013,07,15,00,53,13.70
2013,07,15,00,54,13.70
2013,07,15,00,55,13.70
2013,07,15,00,56,13.70
2013,07,15,00,57,13.70
2013,07,15,00,58,13.70
2013,07,15,00,59,13.70
2013,07,15,01,00,13.70
2013,07,15,01,01,13.60
2013,07,15,01,02,13.60
2013,07,15,01,03,13.60
2013,07,15,01,04,13.60
2013,07,15,01,05,13.60
2013,07,15,01,06,13.60
2013,07,15,01,07,13.60
2013,07,15,01,08,13.60
2013,07,15,01,09,13.50
2013,07,15,01,10,13.50
2013,07,15,01,11,13.50
2013,07,15,01,12,13.50
2013,07,15,01,13,13.50
2013,07,15,01,14,13.40
2013,07,15,01,15,13.40
2013,07,15,01,16,13.40
2013,07,15,01,17,13.40
2013,07,15,01,18,13.30
2013,07,15,01,19,13.30
2013,07,15,01,20,13.30
2013,07,15,01,21,13.30
2013,07,15,01,22,13.30
2013,07,15,01,23,13.30
2013,07,15,01,24,13.30
2013,07,15,01,25,13.30
2013,07,15,01,26,13.30
2013,07,15,01,27,13.20
2013,07,15,01,28,13.20
2013,07,15,01,29,13.20
2013,07,15,01,30,13.20
2013,07,15,01,31,13.20
2013,07,15,01,32,13.20
2013,07,15,01,33,13.20
2013,07,15,01,34,13.20
2013,07,15,01,35,13.10
2013,07,15,01,36,13.10
2013,07,15,01,37,13.10
2013,07,15,01,38,13.10
2013,07,15,01,39,13.10
2013,07,15,01,40,13.10
2013,07,15,01,41,13.10
2013,07,15,01,42,13.10
2013,07,15,01,43,13.10
2013,07,15,01,44,13.10
2013,07,15,01,45,13.00
2013,07,15,01,46,13.00
2013,07,15,01,47,13.00
2013,07,15,01,48,13.00
2013,07,15,01,49,13.00
2013,07,15,01,50,13.00
2013,07,15,01,51,13.00
2013,07,15,01,52,13.00
2013,07,15,01,53,13.00
2013,07,15,01,54,13.00
2013,07,15,01,55,13.00
2013,07,15,01,56,13.00
2013,07,15,01,57,13.00
2013,07,15,01,58,13.00
2013,07,15,01,59,13.00
2013,07,15,02,00,13.00
2013,07,15,02,01,13.00
2013,07,15,02,02,13.00
2013,07,15,02,03,13.00
2013,07,15,02,04,13.00
2013,07,15,02,05,13.00
2013,07,15,02,06,13.00
2013,07,15,02,07,13.00
2013,07,15,02,08,12.90
2013,07,15,02,09,12.90
2013,07,15,02,10,12.90
2013,07,15,02,11,12.90
2013,07,15,02,12,12.90
2013,07,15,02,13,12.90
2013,07,15,02,14,12.90
2013,07,15,02,15,12.90
2013,07,15,02,16,12.90
2013,07,15,02,17,12.80
2013,07,15,02,18,12.80
2013,07,15,02,19,12.80
2013,07,15,02,20,12.80
2013,07,15,02,21,12.80
2013,07,15,02,22,12.80
2013,07,15,02,23,12.80
2013,07,15,02,24,12.80
2013,07,15,02,25,12.80
2013,07,15,02,26,12.80
2013,07,15,02,27,12.80
2013,07,15,02,28,12.80
2013,07,15,02,29,12.80
2013,07,15,02,30,12.80
2013,07,15,02,31,12.80
2013,07,15,02,32,12.80
2013,07,15,02,33,12.80
2013,07,15,02,34,12.80
2013,07,15,02,35,12.80
2013,07,15,02,36,12.70
2013,07,15,02,37,12.70
2013,07,15,02,38,12.70
2013,07,15,02,39,12.70
2013,07,15,02,40,12.60
2013,07,15,02,41,12.60
2013,07,15,02,42,12.60
2013,07,15,02,43,12.50
2013,07,15,02,44,12.50
2013,07,15,02,45,12.50
2013,07,15,02,46,12.40
2013,07,15,02,47,12.40
2013,07,15,02,48,12.40
2013,07,15,02,49,12.40
2013,07,15,02,50,12.40
2013,07,15,02,51,12.40
2013,07,15,02,52,12.40
2013,07,15,02,53,12.30
2013,07,15,02,54,12.30
2013,07,15,02,55,12.30
2013,07,15,02,56,12.30
2013,07,15,02,57,12.30
2013,07,15,02,58,12.30
2013,07,15,02,59,12.30
2013,07,15,03,00,12.30
2013,07,15,03,01,12.30
2013,07,15,03,02,12.30
2013,07,15,03,03,12.30
2013,07,15,03,04,12.30
2013,07,15,03,05,12.30
2013,07,15,03,06,12.30
2013,07,15,03,07,12.30
2013,07,15,03,08,12.30
2013,07,15,03,09,12.30
2013,07,15,03,10,12.30
2013,07,15,03,11,12.30
2013,07,15,03,12,12.20
2013,07,15,03,13,12.20
2013,07,15,03,14,12.20
2013,07,15,03,15,12.10
2013,07,15,03,16,12.10
2013,07,15,03,17,12.10
2013,07,15,03,18,12.00
2013,07,15,03,19,12.00
2013,07,15,03,20,11.90
2013,07,15,03,21,11.90
2013,07,15,03,22,11.90
2013,07,15,03,23,11.80
2013,07,15,03,24,11.80
2013,07,15,03,25,11.80
2013,07,15,03,26,11.80
2013,07,15,03,27,11.80
2013,07,15,03,28,11.80
2013,07,15,03,29,11.80
2013,07,15,03,30,11.80
2013,07,15,03,31,11.80
2013,07,15,03,32,11.80
2013,07,15,03,33,11.80
2013,07,15,03,34,11.80
2013,07,15,03,35,11.80
2013,07,15,03,36,11.80
2013,07,15,03,37,11.80
2013,07,15,03,38,11.80
2013,07,15,03,39,11.80
2013,07,15,03,40,11.80
2013,07,15,03,41,11.80
2013,07,15,03,42,11.80
2013,07,15,03,43,11.80
2013,07,15,03,44,11.80
2013,07,15,03,45,11.80
2013,07,15,03,46,11.80
2013,07,15,03,47,11.80
2013,07,15,03,48,11.80
2013,07,15,03,49,11.80
2013,07,15,03,50,11.80
2013,07,15,03,51,11.80
2013,07,15,03,52,11.80
2013,07,15,03,53,11.80
2013,07,15,03,54,11.70
2013,07,15,03,55,11.70
2013,07,15,03,56,11.60
2013,07,15,03,57,11.60
2013,07,15,03,58,11.60
2013,07,15,03,59,11.60
2013,07,15,04,00,11.60
2013,07,15,04,01,11.60
2013,07,15,04,02,11.60
2013,07,15,04,03,11.60
2013,07,15,04,04,11.60
2013,07,15,04,05,11.50
2013,07,15,04,06,11.40
2013,07,15,04,07,11.40
2013,07,15,04,08,11.40
2013,07,15,04,09,11.40
2013,07,15,04,10,11.40
2013,07,15,04,11,11.40
2013,07,15,04,12,11.40
2013,07,15,04,13,11.40
2013,07,15,04,14,11.30
2013,07,15,04,15,11.30
2013,07,15,04,16,11.30
2013,07,15,04,17,11.30
2013,07,15,04,18,11.30
2013,07,15,04,19,11.30
2013,07,15,04,20,11.20
2013,07,15,04,21,11.20
2013,07,15,04,22,11.20
2013,07,15,04,23,11.20
2013,07,15,04,24,11.20
2013,07,15,04,25,11.20
2013,07,15,04,26,11.20
2013,07,15,04,27,11.20
2013,07,15,04,28,11.20
2013,07,15,04,29,11.20
2013,07,15,04,30,11.20
2013,07,15,04,31,11.10
2013,07,15,04,32,11.10
2013,07,15,04,33,11.10
2013,07,15,04,34,11.10
2013,07,15,04,35,11.00
2013,07,15,04,36,10.90
2013,07,15,04,37,10.90
2013,07,15,04,38,10.90
2013,07,15,04,39,10.90
2013,07,15,04,40,10.90
2013,07,15,04,41,10.90
2013,07,15,04,42,10.90
2013,07,15,04,43,10.90
2013,07,15,04,44,10.90
2013,07,15,04,45,10.90
2013,07,15,04,46,10.90
2013,07,15,04,47,10.90
2013,07,15,04,48,10.90
2013,07,15,04,49,10.90
2013,07,15,04,50,10.90
2013,07,15,04,51,10.90
2013,07,15,04,52,11.10
2013,07,15,04,53,11.10
2013,07,15,04,54,11.10
2013,07,15,04,55,11.10
2013,07,15,04,56,11.10
2013,07,15,04,57,11.10
2013,07,15,04,58,11.10
2013,07,15,04,59,11.10
2013,07,15,05,00,11.10
2013,07,15,05,01,11.10
2013,07,15,05,02,11.10
2013,07,15,05,03,11.10
2013,07,15,05,04,11.10
2013,07,15,05,05,11.10
2013,07,15,05,06,11.10
2013,07,15,05,07,11.10
2013,07,15,05,08,11.10
2013,07,15,05,09,11.10
2013,07,15,05,10,11.10
2013,07,15,05,11,11.10
2013,07,15,05,12,11.00
2013,07,15,05,13,10.90
2013,07,15,05,14,10.90
2013,07,15,05,15,10.90
2013,07,15,05,16,10.90
2013,07,15,05,17,10.90
2013,07,15,05,18,10.90
2013,07,15,05,19,10.90
2013,07,15,05,20,10.80
2013,07,15,05,21,10.80
2013,07,15,05,22,10.70
2013,07,15,05,23,10.70
2013,07,15,05,24,10.70
2013,07,15,05,25,10.70
2013,07,15,05,26,10.70
2013,07,15,05,27,10.70
2013,07,15,05,28,10.70
2013,07,15,05,29,10.70
2013,07,15,05,30,10.70
2013,07,15,05,31,10.70
2013,07,15,05,32,10.70
2013,07,15,05,33,10.70
2013,07,15,05,34,10.70
2013,07,15,05,35,10.70
2013,07,15,05,36,10.80
2013,07,15,05,37,10.80
2013,07,15,05,38,10.90
2013,07,15,05,39,10.90
2013,07,15,05,40,10.80
2013,07,15,05,41,10.80
2013,07,15,05,42,10.80
2013,07,15,05,43,10.80
2013,07,15,05,44,10.70
2013,07,15,05,45,10.70
2013,07,15,05,46,10.70
2013,07,15,05,47,10.70
2013,07,15,05,48,10.60
2013,07,15,05,49,10.60
2013,07,15,05,50,10.60
2013,07,15,05,51,10.60
2013,07,15,05,52,10.60
2013,07,15,05,53,10.60
2013,07,15,05,54,10.60
2013,07,15,05,55,10.60
2013,07,15,05,56,10.60
2013,07,15,05,57,10.60
2013,07,15,05,58,10.60
2013,07,15,05,59,10.60
2013,07,15,06,00,10.70
2013,07,15,06,01,10.70
2013,07,15,06,02,10.70
2013,07,15,06,03,10.70
2013,07,15,06,04,10.70
2013,07,15,06,05,10.70
2013,07,15,06,06,10.80
2013,07,15,06,07,10.80
2013,07,15,06,08,10.80
2013,07,15,06,09,10.90
2013,07,15,06,10,10.90
2013,07,15,06,11,10.90
2013,07,15,06,12,10.90
2013,07,15,06,13,10.90
2013,07,15,06,14,10.90
2013,07,15,06,15,10.90
2013,07,15,06,16,10.90
2013,07,15,06,17,10.90
2013,07,15,06,18,10.90
2013,07,15,06,19,11.10
2013,07,15,06,20,11.10
2013,07,15,06,21,11.10
2013,07,15,06,22,11.10
2013,07,15,06,23,11.20
2013,07,15,06,24,11.20
2013,07,15,06,25,11.30
2013,07,15,06,26,11.30
2013,07,15,06,27,11.40
2013,07,15,06,28,11.40
2013,07,15,06,29,11.40
2013,07,15,06,30,11.50
2013,07,15,06,31,11.60
2013,07,15,06,32,11.60
2013,07,15,06,33,11.60
2013,07,15,06,34,11.60
2013,07,15,06,35,11.60
2013,07,15,06,36,11.60
2013,07,15,06,37,11.60
2013,07,15,06,38,11.60
2013,07,15,06,39,11.60
2013,07,15,06,40,11.60
2013,07,15,06,41,11.70
2013,07,15,06,42,11.70
2013,07,15,06,43,11.70
2013,07,15,06,44,11.80
2013,07,15,06,45,11.80
2013,07,15,06,46,11.80
2013,07,15,06,47,11.90
2013,07,15,06,48,11.90
2013,07,15,06,49,12.00
2013,07,15,06,50,12.00
2013,07,15,06,51,12.10
2013,07,15,06,52,12.10
2013,07,15,06,53,12.10
2013,07,15,06,54,12.20
2013,07,15,06,55,12.20
2013,07,15,06,56,12.20
2013,07,15,06,57,12.30
2013,07,15,06,58,12.30
2013,07,15,06,59,12.30
2013,07,15,07,00,12.30
2013,07,15,07,01,12.30
2013,07,15,07,02,12.40
2013,07,15,07,03,12.40
2013,07,15,07,04,12.50
2013,07,15,07,05,12.50
2013,07,15,07,06,12.50
2013,07,15,07,07,12.50
2013,07,15,07,08,12.60
2013,07,15,07,09,12.60
2013,07,15,07,10,12.60
2013,07,15,07,11,12.70
2013,07,15,07,12,12.70
2013,07,15,07,13,12.70
2013,07,15,07,14,12.80
2013,07,15,07,15,12.80
2013,07,15,07,16,12.80
2013,07,15,07,17,12.90
2013,07,15,07,18,12.90
2013,07,15,07,19,12.90
2013,07,15,07,20,13.00
2013,07,15,07,21,13.00
2013,07,15,07,22,13.00
2013,07,15,07,23,13.10
2013,07,15,07,24,13.10
2013,07,15,07,25,13.10
2013,07,15,07,26,13.10
2013,07,15,07,27,13.20
2013,07,15,07,28,13.20
2013,07,15,07,29,13.30
2013,07,15,07,30,13.30
2013,07,15,07,31,13.30
2013,07,15,07,32,13.30
2013,07,15,07,33,13.40
2013,07,15,07,34,13.40
2013,07,15,07,35,13.50
2013,07,15,07,36,13.60
2013,07,15,07,37,13.60
2013,07,15,07,38,13.70
2013,07,15,07,39,13.70
2013,07,15,07,40,13.70
2013,07,15,07,41,13.80
2013,07,15,07,42,13.90
2013,07,15,07,43,13.90
2013,07,15,07,44,14.00
2013,07,15,07,45,14.00
2013,07,15,07,46,14.10
2013,07,15,07,47,14.10
2013,07,15,07,48,14.20
2013,07,15,07,49,14.20
2013,07,15,07,50,14.20
2013,07,15,07,51,14.30
2013,07,15,07,52,14.40
2013,07,15,07,53,14.40
2013,07,15,07,54,14.50
2013,07,15,07,55,14.60
2013,07,15,07,56,14.70
2013,07,15,07,57,14.80
2013,07,15,07,58,14.80
2013,07,15,07,59,14.90
2013,07,15,08,00,14.90
2013,07,15,08,01,15.00
2013,07,15,08,02,15.00
2013,07,15,08,03,15.10
2013,07,15,08,04,15.10
2013,07,15,08,05,15.20
2013,07,15,08,06,15.20
2013,07,15,08,07,15.30
2013,07,15,08,08,15.40
2013,07,15,08,09,15.50
2013,07,15,08,10,15.50
2013,07,15,08,11,15.60
2013,07,15,08,12,15.70
2013,07,15,08,13,15.80
2013,07,15,08,14,15.80
2013,07,15,08,15,15.80
2013,07,15,08,16,15.90
2013,07,15,08,17,16.00
2013,07,15,08,18,16.10
2013,07,15,08,19,16.10
2013,07,15,08,20,16.10
2013,07,15,08,21,16.10
2013,07,15,08,22,16.10
2013,07,15,08,23,16.10
2013,07,15,08,24,16.20
2013,07,15,08,25,16.20
2013,07,15,08,26,16.20
2013,07,15,08,27,16.20
2013,07,15,08,28,16.20
2013,07,15,08,29,16.20
2013,07,15,08,30,16.10
2013,07,15,08,31,16.10
2013,07,15,08,32,16.10
2013,07,15,08,33,16.10
2013,07,15,08,34,16.10
2013,07,15,08,35,16.10
2013,07,15,08,36,16.10
2013,07,15,08,37,16.10
2013,07,15,08,38,16.10
2013,07,15,08,39,16.10
2013,07,15,08,40,16.10
2013,07,15,08,41,16.10
2013,07,15,08,42,16.10
2013,07,15,08,43,16.10
2013,07,15,08,44,16.10
2013,07,15,08,45,16.10
2013,07,15,08,46,16.20
2013,07,15,08,47,16.20
2013,07,15,08,48,16.30
2013,07,15,08,49,16.40
2013,07,15,08,50,16.40
2013,07,15,08,51,16.40
2013,07,15,08,52,16.50
2013,07,15,08,53,16.60
2013,07,15,08,54,16.70
2013,07,15,08,55,16.70
2013,07,15,08,56,16.80
2013,07,15,08,57,16.80
2013,07,15,08,58,16.90
2013,07,15,08,59,16.90
2013,07,15,09,00,17.00
2013,07,15,09,01,17.00
2013,07,15,09,02,16.90
2013,07,15,09,03,16.80
2013,07,15,09,04,16.60
2013,07,15,09,05,16.40
2013,07,15,09,06,16.40
2013,07,15,09,07,16.30
2013,07,15,09,08,16.20
2013,07,15,09,09,16.10
2013,07,15,09,10,16.10
2013,07,15,09,11,16.10
2013,07,15,09,12,16.10
2013,07,15,09,13,16.10
2013,07,15,09,14,16.10
2013,07,15,09,15,16.10
2013,07,15,09,16,16.10
2013,07,15,09,17,15.90
2013,07,15,09,18,15.90
2013,07,15,09,19,15.90
2013,07,15,09,20,16.00
2013,07,15,09,21,16.10
2013,07,15,09,22,16.20
2013,07,15,09,23,16.30
2013,07,15,09,24,16.40
2013,07,15,09,25,16.50
2013,07,15,09,26,16.70
2013,07,15,09,27,16.80
2013,07,15,09,28,16.90
2013,07,15,09,29,17.00
2013,07,15,09,30,17.00
2013,07,15,09,31,17.10
2013,07,15,09,32,17.10
2013,07,15,09,33,17.10
2013,07,15,09,34,17.00
2013,07,15,09,35,16.90
2013,07,15,09,36,16.80
2013,07,15,09,37,16.70
2013,07,15,09,38,16.60
2013,07,15,09,39,16.50
2013,07,15,09,40,16.40
2013,07,15,09,41,16.40
2013,07,15,09,42,16.40
2013,07,15,09,43,16.50
2013,07,15,09,44,16.60
2013,07,15,09,45,16.60
2013,07,15,09,46,16.60
2013,07,15,09,47,16.60
2013,07,15,09,48,16.60
2013,07,15,09,49,16.70
2013,07,15,09,50,16.70
2013,07,15,09,51,16.70
2013,07,15,09,52,16.70
2013,07,15,09,53,16.70
2013,07,15,09,54,16.70
2013,07,15,09,55,16.70
2013,07,15,09,56,16.70
2013,07,15,09,57,16.70
2013,07,15,09,58,16.80
2013,07,15,09,59,16.70
2013,07,15,10,00,16.70
2013,07,15,10,01,16.70
2013,07,15,10,02,16.70
2013,07,15,10,03,16.70
2013,07,15,10,04,16.70
2013,07,15,10,05,16.70
2013,07,15,10,06,16.70
2013,07,15,10,07,16.70
2013,07,15,10,08,16.70
2013,07,15,10,09,16.80
2013,07,15,10,10,16.90
2013,07,15,10,11,17.00
2013,07,15,10,12,17.20
2013,07,15,10,13,17.30
2013,07,15,10,14,17.40
2013,07,15,10,15,17.50
2013,07,15,10,16,17.50
2013,07,15,10,17,17.60
2013,07,15,10,18,17.70
2013,07,15,10,19,17.80
2013,07,15,10,20,17.90
2013,07,15,10,21,17.90
2013,07,15,10,22,17.90
2013,07,15,10,23,17.90
2013,07,15,10,24,17.90
2013,07,15,10,25,17.90
2013,07,15,10,26,17.90
2013,07,15,10,27,17.90
2013,07,15,10,28,17.90
2013,07,15,10,29,17.90
2013,07,15,10,30,17.80
2013,07,15,10,31,17.80
2013,07,15,10,32,17.80
2013,07,15,10,33,17.80
2013,07,15,10,34,17.80
2013,07,15,10,35,17.80
2013,07,15,10,36,17.90
2013,07,15,10,37,18.00
2013,07,15,10,38,18.20
2013,07,15,10,39,18.30
2013,07,15,10,40,18.50
2013,07,15,10,41,18.60
2013,07,15,10,42,18.80
2013,07,15,10,43,18.90
2013,07,15,10,44,19.00
2013,07,15,10,45,19.10
2013,07,15,10,46,19.20
2013,07,15,10,47,19.30
2013,07,15,10,48,19.40
2013,07,15,10,49,19.50
2013,07,15,10,50,19.60
2013,07,15,10,51,19.70
2013,07,15,10,52,19.70
2013,07,15,10,53,19.80
2013,07,15,10,54,19.90
2013,07,15,10,55,19.80
2013,07,15,10,56,19.60
2013,07,15,10,57,19.60
2013,07,15,10,58,19.40
2013,07,15,10,59,19.40
2013,07,15,11,00,19.40
2013,07,15,11,01,19.50
2013,07,15,11,02,19.60
2013,07,15,11,03,19.80
2013,07,15,11,04,19.90
2013,07,15,11,05,20.10
2013,07,15,11,06,20.30
2013,07,15,11,07,20.60
2013,07,15,11,08,20.80
2013,07,15,11,09,20.90
2013,07,15,11,10,21.00
2013,07,15,11,11,21.10
2013,07,15,11,12,21.30
2013,07,15,11,13,21.30
2013,07,15,11,14,21.30
2013,07,15,11,15,21.30
2013,07,15,11,16,21.30
2013,07,15,11,17,21.30
2013,07,15,11,18,21.20
2013,07,15,11,19,21.20
2013,07,15,11,20,21.10
2013,07,15,11,21,21.10
2013,07,15,11,22,21.00
2013,07,15,11,23,20.80
2013,07,15,11,24,20.70
2013,07,15,11,25,20.70
2013,07,15,11,26,20.40
2013,07,15,11,27,20.10
2013,07,15,11,28,19.90
2013,07,15,11,29,19.70
2013,07,15,11,30,19.60
2013,07,15,11,31,19.40
2013,07,15,11,32,19.30
2013,07,15,11,33,19.30
2013,07,15,11,34,19.40
2013,07,15,11,35,19.50
2013,07,15,11,36,19.60
2013,07,15,11,37,19.80
2013,07,15,11,38,19.90
2013,07,15,11,39,19.90
2013,07,15,11,40,19.90
2013,07,15,11,41,20.00
2013,07,15,11,42,20.10
2013,07,15,11,43,20.20
2013,07,15,11,44,20.30
2013,07,15,11,45,20.50
2013,07,15,11,46,20.60
2013,07,15,11,47,20.80
2013,07,15,11,48,20.90
2013,07,15,11,49,21.00
2013,07,15,11,50,21.10
2013,07,15,11,51,21.30
2013,07,15,11,52,21.40
2013,07,15,11,53,21.60
2013,07,15,11,54,21.50
2013,07,15,11,55,21.40
2013,07,15,11,56,21.20
2013,07,15,11,57,20.90
2013,07,15,11,58,20.90
2013,07,15,11,59,20.80
2013,07,15,12,00,20.70
2013,07,15,12,01,20.60
2013,07,15,12,02,20.50
2013,07,15,12,03,20.50
2013,07,15,12,04,20.40
2013,07,15,12,05,20.50
2013,07,15,12,06,20.60
2013,07,15,12,07,20.60
2013,07,15,12,08,20.70
2013,07,15,12,09,20.70
2013,07,15,12,10,20.70
2013,07,15,12,11,20.60
2013,07,15,12,12,20.70
2013,07,15,12,13,20.90
2013,07,15,12,14,21.10
2013,07,15,12,15,21.30
2013,07,15,12,16,21.30
2013,07,15,12,17,21.30
2013,07,15,12,18,21.40
2013,07,15,12,19,21.30
2013,07,15,12,20,21.10
2013,07,15,12,21,20.90
2013,07,15,12,22,20.90
2013,07,15,12,23,20.90
2013,07,15,12,24,20.80
2013,07,15,12,25,20.80
2013,07,15,12,26,21.00
2013,07,15,12,27,21.10
2013,07,15,12,28,21.20
2013,07,15,12,29,21.30
2013,07,15,12,30,21.30
2013,07,15,12,31,21.30
2013,07,15,12,32,21.40
2013,07,15,12,33,21.50
2013,07,15,12,34,21.60
2013,07,15,12,35,21.70
2013,07,15,12,36,21.90
2013,07,15,12,37,22.00
2013,07,15,12,38,22.20
2013,07,15,12,39,22.30
2013,07,15,12,40,22.60
2013,07,15,12,41,22.40
2013,07,15,12,42,22.10
2013,07,15,12,43,21.70
2013,07,15,12,44,21.40
2013,07,15,12,45,21.30
2013,07,15,12,46,21.40
2013,07,15,12,47,21.50
2013,07,15,12,48,21.60
2013,07,15,12,49,21.60
2013,07,15,12,50,21.40
2013,07,15,12,51,21.20
2013,07,15,12,52,20.90
2013,07,15,12,53,20.80
2013,07,15,12,54,20.70
2013,07,15,12,55,20.50
2013,07,15,12,56,20.50
2013,07,15,12,57,20.60
2013,07,15,12,58,20.80
2013,07,15,12,59,20.80
2013,07,15,13,00,20.80
2013,07,15,13,01,20.60
2013,07,15,13,02,20.50
2013,07,15,13,03,20.30
2013,07,15,13,04,20.10
2013,07,15,13,05,19.90
2013,07,15,13,06,20.00
2013,07,15,13,07,20.10
2013,07,15,13,08,19.90
2013,07,15,13,09,20.00
2013,07,15,13,10,20.10
2013,07,15,13,11,20.20
2013,07,15,13,12,20.40
2013,07,15,13,13,20.60
2013,07,15,13,14,20.70
2013,07,15,13,15,20.70
2013,07,15,13,16,20.60
2013,07,15,13,17,20.60
2013,07,15,13,18,20.80
2013,07,15,13,19,20.80
2013,07,15,13,20,20.70
2013,07,15,13,21,20.70
2013,07,15,13,22,20.70
2013,07,15,13,23,20.70
2013,07,15,13,24,20.60
2013,07,15,13,25,20.60
2013,07,15,13,26,20.60
2013,07,15,13,27,20.60
2013,07,15,13,28,20.70
2013,07,15,13,29,20.80
2013,07,15,13,30,20.80
2013,07,15,13,31,20.80
2013,07,15,13,32,20.80
2013,07,15,13,33,21.00
2013,07,15,13,34,21.10
2013,07,15,13,35,21.20
2013,07,15,13,36,21.30
2013,07,15,13,37,21.40
2013,07,15,13,38,21.60
2013,07,15,13,39,21.60
2013,07,15,13,40,21.60
2013,07,15,13,41,21.60
2013,07,15,13,42,21.70
2013,07,15,13,43,21.70
2013,07,15,13,44,21.70
2013,07,15,13,45,21.90
2013,07,15,13,46,21.90
2013,07,15,13,47,21.90
2013,07,15,13,48,21.80
2013,07,15,13,49,21.90
2013,07,15,13,50,21.90
2013,07,15,13,51,21.90
2013,07,15,13,52,21.90
2013,07,15,13,53,22.00
2013,07,15,13,54,22.00
2013,07,15,13,55,21.90
2013,07,15,13,56,22.00
2013,07,15,13,57,22.00
2013,07,15,13,58,22.00
2013,07,15,13,59,22.00
2013,07,15,14,00,22.00
2013,07,15,14,01,22.00
2013,07,15,14,02,22.00
2013,07,15,14,03,22.00
2013,07,15,14,04,22.00
2013,07,15,14,05,22.10
2013,07,15,14,06,22.10
2013,07,15,14,07,22.20
2013,07,15,14,08,22.30
2013,07,15,14,09,22.50
2013,07,15,14,10,22.50
2013,07,15,14,11,22.20
2013,07,15,14,12,21.90
2013,07,15,14,13,21.60
2013,07,15,14,14,21.50
2013,07,15,14,15,21.30
2013,07,15,14,16,21.30
2013,07,15,14,17,21.30
2013,07,15,14,18,21.30
2013,07,15,14,19,21.40
2013,07,15,14,20,21.60
2013,07,15,14,21,21.70
2013,07,15,14,22,21.70
2013,07,15,14,23,21.80
2013,07,15,14,24,21.70
2013,07,15,14,25,21.60
2013,07,15,14,26,21.60
2013,07,15,14,27,21.60
2013,07,15,14,28,21.60
2013,07,15,14,29,21.60
2013,07,15,14,30,21.60
2013,07,15,14,31,21.60
2013,07,15,14,32,21.60
2013,07,15,14,33,21.60
2013,07,15,14,34,21.60
2013,07,15,14,35,21.70
2013,07,15,14,36,21.60
2013,07,15,14,37,21.70
2013,07,15,14,38,21.80
2013,07,15,14,39,21.80
2013,07,15,14,40,21.90
2013,07,15,14,41,21.90
2013,07,15,14,42,21.90
2013,07,15,14,43,21.90
2013,07,15,14,44,21.90
2013,07,15,14,45,22.00
2013,07,15,14,46,22.00
2013,07,15,14,47,22.00
2013,07,15,14,48,21.80
2013,07,15,14,49,21.60
2013,07,15,14,50,21.60
2013,07,15,14,51,21.60
2013,07,15,14,52,21.60
2013,07,15,14,53,21.60
2013,07,15,14,54,21.70
2013,07,15,14,55,22.00
2013,07,15,14,56,22.10
2013,07,15,14,57,22.20
2013,07,15,14,58,22.20
2013,07,15,14,59,22.40
2013,07,15,15,00,22.50
2013,07,15,15,01,22.40
2013,07,15,15,02,22.30
2013,07,15,15,03,22.10
2013,07,15,15,04,21.80
2013,07,15,15,05,21.60
2013,07,15,15,06,21.40
2013,07,15,15,07,21.30
2013,07,15,15,08,21.30
2013,07,15,15,09,21.30
2013,07,15,15,10,21.30
2013,07,15,15,11,21.30
2013,07,15,15,12,21.30
2013,07,15,15,13,21.40
2013,07,15,15,14,21.50
2013,07,15,15,15,21.70
2013,07,15,15,16,22.10
2013,07,15,15,17,22.30
2013,07,15,15,18,22.40
2013,07,15,15,19,22.50
2013,07,15,15,20,22.40
2013,07,15,15,21,22.30
2013,07,15,15,22,22.30
2013,07,15,15,23,22.30
2013,07,15,15,24,22.30
2013,07,15,15,25,22.30
2013,07,15,15,26,22.30
2013,07,15,15,27,22.30
2013,07,15,15,28,22.20
2013,07,15,15,29,22.10
2013,07,15,15,30,22.20
2013,07,15,15,31,22.30
2013,07,15,15,32,22.20
2013,07,15,15,33,22.20
2013,07,15,15,34,22.30
2013,07,15,15,35,22.40
2013,07,15,15,36,22.50
2013,07,15,15,37,22.60
2013,07,15,15,38,22.80
2013,07,15,15,39,22.90
2013,07,15,15,40,22.80
2013,07,15,15,41,22.80
2013,07,15,15,42,22.80
2013,07,15,15,43,22.70
2013,07,15,15,44,22.60
2013,07,15,15,45,22.60
2013,07,15,15,46,22.60
2013,07,15,15,47,22.60
2013,07,15,15,48,22.70
2013,07,15,15,49,22.80
2013,07,15,15,50,22.80
2013,07,15,15,51,22.70
2013,07,15,15,52,22.60
2013,07,15,15,53,22.50
2013,07,15,15,54,22.40
2013,07,15,15,55,22.50
2013,07,15,15,56,22.40
2013,07,15,15,57,22.40
2013,07,15,15,58,22.50
2013,07,15,15,59,22.60
2013,07,15,16,00,22.70
2013,07,15,16,01,22.90
2013,07,15,16,02,23.00
2013,07,15,16,03,23.10
2013,07,15,16,04,23.30
2013,07,15,16,05,23.30
2013,07,15,16,06,23.30
2013,07,15,16,07,23.30
2013,07,15,16,08,23.20
2013,07,15,16,09,23.10
2013,07,15,16,10,23.00
2013,07,15,16,11,22.90
2013,07,15,16,12,22.90
2013,07,15,16,13,22.90
2013,07,15,16,14,22.80
2013,07,15,16,15,22.90
2013,07,15,16,16,22.90
2013,07,15,16,17,22.90
2013,07,15,16,18,22.80
2013,07,15,16,19,22.70
2013,07,15,16,20,22.60
2013,07,15,16,21,22.60
2013,07,15,16,22,22.60
2013,07,15,16,23,22.60
2013,07,15,16,24,22.80
2013,07,15,16,25,22.90
2013,07,15,16,26,22.90
2013,07,15,16,27,22.90
2013,07,15,16,28,22.90
2013,07,15,16,29,22.80
2013,07,15,16,30,22.70
2013,07,15,16,31,22.70
2013,07,15,16,32,22.80
2013,07,15,16,33,22.80
2013,07,15,16,34,22.90
2013,07,15,16,35,22.90
2013,07,15,16,36,22.80
2013,07,15,16,37,22.60
2013,07,15,16,38,22.50
2013,07,15,16,39,22.30
2013,07,15,16,40,22.30
2013,07,15,16,41,22.30
2013,07,15,16,42,22.40
2013,07,15,16,43,22.50
2013,07,15,16,44,22.60
2013,07,15,16,45,22.50
2013,07,15,16,46,22.50
2013,07,15,16,47,22.40
2013,07,15,16,48,22.30
2013,07,15,16,49,22.40
2013,07,15,16,50,22.50
2013,07,15,16,51,22.50
2013,07,15,16,52,22.40
2013,07,15,16,53,22.30
2013,07,15,16,54,22.30
2013,07,15,16,55,22.30
2013,07,15,16,56,22.30
2013,07,15,16,57,22.30
2013,07,15,16,58,22.20
2013,07,15,16,59,22.10
2013,07,15,17,00,22.10
2013,07,15,17,01,22.10
2013,07,15,17,02,22.10
2013,07,15,17,03,22.10
2013,07,15,17,04,22.20
2013,07,15,17,05,22.30
2013,07,15,17,06,22.40
2013,07,15,17,07,22.50
2013,07,15,17,08,22.50
2013,07,15,17,09,22.50
2013,07,15,17,10,22.50
2013,07,15,17,11,22.60
2013,07,15,17,12,22.60
2013,07,15,17,13,22.50
2013,07,15,17,14,22.50
2013,07,15,17,15,22.50
2013,07,15,17,16,22.60
2013,07,15,17,17,22.70
2013,07,15,17,18,22.80
2013,07,15,17,19,22.80